Torna al catalogo

COSMOS 1375 DEB

AttivoLEO
NORAD 16203·DEBRIS·🇷🇺 Russia

Lanciato Jun 6, 1982 da Plesetsk Cosmodrome

Loading…

Prossimi Passaggi (prossime 24 ore)

TLE

AggiornatoSource: Space-Track

Epoca: Sep 14, 2026, 07:49 UTC

1 16203U 82055E   26257.32571493 -.00000068  00000-0  12811-4 0  9990
2 16203  65.8364  29.2512 0075456 303.6588  77.4051 13.89203300243098

Traccia COSMOS 1375 DEB in tempo reale con AllMySat

Download on the App Store